[[{"header":{"parameterUnit":"m.s-1","parameterCategory":1,"la1":30.2991,"la2":30.254,"lo1":-89.0895,"lo2":-89.0444,"dy":0.0017,"dx":0.0017,"nx":28,"ny":28,"refTime":"2024-06-15T03:00:00:Z","depth":0,"parameterNumber":2,"parameterNumberName":"U-component_of_WINDS"},"data":[0,0,0,0,0,0,0,0,0,0,0,0,0,0,0,0,0,0,0,0,0,0,0,0,0,0,0,0,0,0,0,0,0,0,0,0,0,0,0,0,0,0,0,0,0,0,0,0,0,0,0,0,0,0,0,0,0,0,-3.3924,-3.3924,0,-3.3949,-3.3949,-3.3949,-3.393,-3.3929,-3.3928,-3.3927,-3.3956,-3.3958,-3.3959,0,0,0,0,0,0,0,0,0,0,0,0,0,-3.3864,-3.3865,-3.3924,-3.3924,-3.3924,-3.3949,-3.3949,-3.3949,-3.393,-3.3929,-3.3928,-3.3927,-3.3956,-3.3957,-3.3959,0,0,0,0,0,0,0,0,0,0,0,0,0,-3.3889,-3.3865,-3.3924,-3.3918,-3.3917,-3.3948,-3.3949,-3.3949,-3.393,-3.3929,-3.3928,-3.3926,-3.3955,-3.3957,-3.3959,-3.3999,0,0,-3.3967,-3.3968,0,0,0,0,0,0,0,0,-3.3888,-3.3892,-3.3918,-3.3918,-3.3918,-3.3935,-3.3938,-3.3966,-3.393,-3.3925,-3.3927,-3.3926,-3.395,-3.3953,-3.396,-3.4001,-3.4002,-3.3967,-3.3968,-3.3969,-3.397,0,0,0,0,0,0,0,-3.3886,-3.3891,-3.3934,-3.3919,-3.3918,-3.3915,-3.3917,-3.3943,-3.3945,-3.3926,-3.3924,-3.3927,-3.395,-3.3958,-3.3961,-3.4002,-3.3967,-3.3969,-3.397,-3.3971,-3.4077,-3.4078,0,0,0,0,0,0,-3.3885,-3.3889,-3.3933,-3.3934,-3.3899,-3.3917,-3.3919,-3.3931,-3.3944,-3.3945,-3.3928,-3.3926,-3.3955,-3.3958,-3.3962,-3.4008,-3.3969,-3.3971,-3.3973,-3.4075,-3.4077,-3.4079,0,0,0,0,0,0,-3.3883,-3.3889,-3.3932,-3.3911,-3.3917,-3.3919,-3.3932,-3.3932,-3.394,-3.3946,-3.3947,-3.3936,-3.3954,-3.3959,-3.399,-3.4009,-3.3972,-3.3975,-3.4074,-3.4076,-3.4078,-3.4103,0,0,0,0,0,0,-3.3882,-3.3888,-3.3902,-3.3912,-3.3918,-3.3958,-3.3933,-3.3933,-3.3943,-3.3941,-3.3954,-3.3955,-3.3953,-3.3986,-3.3992,-3.4012,-3.3976,-3.4072,-3.4075,-3.4077,-3.41,-3.4105,-3.411,0,0,0,0,0,-3.388,-3.3909,-3.3903,-3.3908,-3.3935,-3.3959,-3.3963,-3.3959,-3.3945,-3.396,-3.3964,-3.3954,-3.4007,-3.399,-3.3996,-3.4017,-3.4071,-3.4074,-3.4077,-3.4098,-3.4104,-3.411,0,0,0,0,0,0,-3.3902,-3.391,-3.3903,-3.3937,-3.3947,-3.3956,-3.3974,-3.3966,-3.3982,-3.3979,-3.3976,-3.3979,-3.4012,-3.4018,-3.3999,-3.4056,-3.4037,-3.4041,-3.405,-3.4057,-3.4061,-3.4058,-3.3978,0,0,0,0,0,-3.3911,-3.3929,-3.3935,-3.3964,-3.397,-3.3971,-3.3982,-3.3978,-3.399,-3.3994,-3.4001,-3.4013,-3.4033,-3.4045,-3.4064,-3.4102,-3.4104,-3.4119,-3.4124,-3.4128,-3.4132,-3.4152,-3.4159,-3.4089,-3.4089,-3.4089,0,0,-3.393,-3.3936,-3.3948,-3.3969,-3.3977,-3.3996,-3.3975,-3.3997,-3.4011,-3.3998,-3.4027,-3.4033,-3.4047,-3.4082,-3.4097,-3.4088,-3.4152,-3.4132,-3.4135,-3.4137,-3.4156,-3.4163,-3.4169,-3.4091,-3.4091,-3.409,0,0,-3.3973,-3.398,-3.4004,-3.4012,-3.4024,-3.4025,-3.4031,-3.4041,-3.4044,-3.4073,-3.4064,-3.4083,-3.4116,-3.4126,-3.4135,-3.4184,-3.4176,-3.4191,-3.4215,-3.4236,-3.4241,-3.4246,-3.4262,-3.4268,-3.4195,-3.4195,-3.4195,0,-3.3994,-3.4021,-3.4018,-3.4039,-3.4049,-3.4038,-3.4063,-3.4072,-3.409,-3.4098,-3.4087,-3.4128,-3.4137,-3.4174,-3.4186,-3.4194,-3.4202,-3.4188,-3.424,-3.4245,-3.425,-3.4265,-3.4272,-3.4196,-3.4196,-3.4196,-3.4196,0,-3.4047,-3.4067,-3.4085,-3.4101,-3.4114,-3.4137,-3.4138,-3.4151,-3.4148,-3.415,-3.4181,-3.4191,-3.4211,-3.422,-3.4218,-3.4257,-3.4251,-3.4241,-3.422,-3.4258,-3.4273,-3.4279,-3.4198,-3.4198,-3.4197,-3.4197,0,0,-3.4103,-3.4117,-3.4124,-3.4131,-3.4144,-3.416,-3.4184,-3.4202,-3.4213,-3.4227,-3.4247,-3.4277,-3.4267,-3.4278,-3.4277,-3.4295,-3.4332,-3.4282,-3.4283,-3.429,-3.4376,-3.4382,-3.4389,-3.4328,-3.4329,-3.433,-3.4374,0,-3.4145,-3.4184,-3.4182,-3.422,-3.4238,-3.4229,-3.425,-3.4261,-3.4265,-3.4282,-3.4287,-3.4307,-3.4294,-3.43,-3.4318,-3.4324,-3.4349,-3.4321,-3.4346,-3.4347,-3.434,-3.4397,-3.4403,-3.4445,-3.438,-3.4381,-3.4382,0,-3.4199,-3.4213,-3.4252,-3.4262,-3.427,-3.4289,-3.4306,-3.4322,-3.4336,-3.4337,-3.435,-3.4346,-3.4372,-3.4353,-3.4388,-3.4369,-3.438,-3.4385,-3.4387,-3.4387,-3.4365,-3.4397,-3.4458,-3.4464,-3.4391,-3.439,-3.439,0,-3.4234,-3.4263,-3.429,-3.4297,-3.431,-3.4323,-3.433,-3.4342,-3.4353,-3.4369,-3.4377,-3.4396,-3.4407,-3.4422,-3.4424,-3.4411,-3.446,-3.4441,-3.4462,-3.4462,-3.4471,-3.447,-3.4533,-3.4482,-3.4482,-3.4482,-3.4481,0,-3.428,-3.4304,-3.4306,-3.4322,-3.4349,-3.4348,-3.4375,-3.4381,-3.4392,-3.441,-3.4405,-3.4422,-3.4424,-3.4443,-3.4446,-3.4474,-3.448,-3.4482,-3.4482,-3.4481,-3.4481,-3.4487,-3.4483,-3.4483,-3.4483,-3.4483,-3.4482,0,-3.4323,-3.4325,-3.4353,-3.4364,-3.4367,-3.4387,-3.4396,-3.4413,-3.4417,-3.444,-3.4445,-3.4452,-3.4474,-3.4478,-3.4505,-3.4506,-3.454,-3.4538,-3.4535,-3.4534,-3.4554,-3.4551,-3.4621,-3.463,-3.4575,-3.4575,-3.4576,0,-3.4351,-3.4369,-3.4381,-3.4392,-3.4399,-3.4418,-3.4429,-3.443,-3.4442,-3.4459,-3.4474,-3.4495,-3.4511,-3.4547,-3.4555,-3.4576,-3.4573,-3.4596,-3.4576,-3.4575,-3.4572,-3.457,-3.4571,-3.4599,-3.46,-3.46,-3.4601,0,-3.4401,-3.4401,-3.4417,-3.4433,-3.4447,-3.446,-3.4473,-3.4483,-3.4486,-3.45,-3.4522,-3.4535,-3.4561,-3.4582,-3.4603,-3.4612,-3.4607,-3.4607,-3.4613,-3.4611,-3.4608,-3.4609,-3.4543,-3.4605,-3.4605,-3.4604,-3.4604,-3.4604,-3.4436,-3.4451,-3.4462,-3.448,-3.449,-3.4502,-3.4518,-3.4524,-3.4541,-3.4561,-3.4562,-3.4585,-3.46,-3.4626,-3.4637,-3.4656,-3.4649,-3.4657,-3.4659,-3.4661,-3.4662,-3.4607,-3.466,-3.466,-3.466,-3.466,-3.466,0,-3.4484,-3.4491,-3.4508,-3.4525,-3.454,-3.4534,-3.4548,-3.4561,-3.4581,-3.4594,-3.461,-3.4636,-3.4657,-3.4667,-3.4688,-3.4702,-3.47,-3.4707,-3.4705,-3.4707,-3.4668,-3.466,-3.4708,-3.4708,-3.4708,-3.4708,-3.4708,-3.4708,-3.4511,-3.4536,-3.4538,-3.4568,-3.4576,-3.4597,-3.4606,-3.4618,-3.4628,-3.4656,-3.4672,-3.4679,-3.4691,-3.4713,-3.4733,-3.4735,-3.4743,-3.475,-3.4752,-3.4715,-3.471,-3.4705,-3.4697,-3.4752,-3.4752,-3.4789,-3.479,-3.479]},{"header":{"parameterUnit":"m.s-1","parameterCategory":1,"la1":30.2991,"la2":30.254,"lo1":-89.0895,"lo2":-89.0444,"dy":0.0017,"dx":0.0017,"nx":28,"ny":28,"refTime":"2024-06-15T03:00:00:Z","depth":0,"parameterNumber":3,"parameterNumberName":"V-component_of_WINDS"},"data":[0,0,0,0,0,0,0,0,0,0,0,0,0,0,0,0,0,0,0,0,0,0,0,0,0,0,0,0,0,0,0,0,0,0,0,0,0,0,0,0,0,0,0,0,0,0,0,0,0,0,0,0,0,0,0,0,0,0,3.1168,3.1168,0,3.113,3.1129,3.1129,3.1096,3.1096,3.1095,3.1095,3.1052,3.1052,3.1051,0,0,0,0,0,0,0,0,0,0,0,0,0,3.121,3.1209,3.1168,3.1168,3.1167,3.113,3.1129,3.1129,3.1096,3.1096,3.1095,3.1095,3.1053,3.1052,3.1051,0,0,0,0,0,0,0,0,0,0,0,0,0,3.1184,3.1209,3.1168,3.1146,3.1144,3.113,3.1129,3.1129,3.1096,3.1096,3.1095,3.1095,3.1053,3.1052,3.1051,3.1054,0,0,3.1047,3.1046,0,0,0,0,0,0,0,0,3.1185,3.1182,3.115,3.1148,3.1145,3.1117,3.1128,3.1104,3.1096,3.1114,3.1095,3.1094,3.1074,3.1071,3.1065,3.1052,3.105,3.1047,3.1046,3.1046,3.1045,0,0,0,0,0,0,0,3.1187,3.1183,3.1153,3.115,3.1147,3.1138,3.1133,3.1124,3.1097,3.1113,3.111,3.1106,3.1073,3.1066,3.1064,3.1049,3.1047,3.1046,3.1045,3.1045,3.1038,3.1038,0,0,0,0,0,0,3.1193,3.1185,3.1154,3.1152,3.1164,3.1137,3.1132,3.1127,3.1098,3.1093,3.1107,3.1105,3.1069,3.1065,3.1062,3.1065,3.1046,3.1044,3.1044,3.1037,3.1038,3.1039,0,0,0,0,0,0,3.1194,3.119,3.1156,3.1168,3.1163,3.1137,3.1131,3.1126,3.112,3.1093,3.1088,3.1105,3.1068,3.1064,3.1057,3.1063,3.1044,3.1043,3.1037,3.1037,3.1038,3.107,0,0,0,0,0,0,3.1195,3.1191,3.1192,3.1168,3.1162,3.1152,3.1131,3.1126,3.1118,3.1115,3.109,3.1086,3.1067,3.1059,3.1055,3.1061,3.1042,3.1036,3.1037,3.1038,3.1068,3.1072,3.1075,0,0,0,0,0,3.1197,3.1202,3.1193,3.1189,3.1164,3.1152,3.1149,3.1128,3.1119,3.112,3.1103,3.1086,3.1063,3.1058,3.1054,3.1059,3.1035,3.1037,3.1038,3.1067,3.1071,3.1075,0,0,0,0,0,0,3.1226,3.1198,3.1188,3.1185,3.1172,3.1147,3.1147,3.1133,3.1121,3.1119,3.1093,3.1087,3.1083,3.107,3.1066,3.1061,3.1047,3.1047,3.107,3.1074,3.1077,3.108,3.1041,0,0,0,0,0,3.1233,3.1226,3.1202,3.1202,3.1196,3.1173,3.1167,3.1153,3.1137,3.113,3.1113,3.1097,3.1086,3.1079,3.1067,3.1066,3.106,3.1068,3.1071,3.1074,3.1074,3.1073,3.1076,3.1042,3.1042,3.1042,0,0,3.1245,3.1229,3.1227,3.1208,3.1195,3.1189,3.1168,3.1162,3.1156,3.1129,3.1122,3.1108,3.1089,3.1085,3.1082,3.1074,3.1083,3.1075,3.1078,3.1077,3.1075,3.1078,3.1081,3.1043,3.1043,3.1043,0,0,3.1266,3.1253,3.1252,3.1241,3.1222,3.1207,3.1207,3.1185,3.1175,3.1168,3.1147,3.114,3.1121,3.1109,3.11,3.1116,3.1101,3.1113,3.113,3.1129,3.1132,3.1134,3.114,3.1143,3.1114,3.1114,3.1114,0,3.1283,3.1274,3.1253,3.1249,3.1241,3.1217,3.1216,3.1205,3.1184,3.1179,3.117,3.1147,3.1132,3.1125,3.113,3.1123,3.1122,3.1116,3.1133,3.1135,3.1137,3.1143,3.1145,3.1115,3.1115,3.1115,3.1115,0,3.1297,3.129,3.1292,3.1274,3.1266,3.1263,3.1241,3.1236,3.1222,3.1208,3.1201,3.1182,3.1167,3.1164,3.115,3.1155,3.1151,3.1138,3.1123,3.1142,3.1147,3.1149,3.1118,3.1117,3.1117,3.1116,0,0,3.1334,3.1306,3.1306,3.1298,3.1277,3.1271,3.1267,3.1253,3.1249,3.1235,3.1231,3.1216,3.1205,3.1194,3.1179,3.1178,3.1193,3.1165,3.1165,3.1172,3.1198,3.1208,3.1211,3.1183,3.1183,3.1183,3.1199,0,3.1351,3.1344,3.1326,3.1324,3.1317,3.1295,3.1291,3.1278,3.1264,3.1256,3.124,3.1231,3.1216,3.121,3.1208,3.1192,3.1198,3.119,3.1178,3.1178,3.1184,3.1213,3.1223,3.124,3.1201,3.1201,3.1202,0,3.137,3.1359,3.1357,3.1337,3.1334,3.1331,3.1317,3.131,3.1294,3.1284,3.1273,3.1257,3.125,3.1237,3.1228,3.1223,3.1216,3.1208,3.1208,3.1206,3.1191,3.1212,3.1244,3.1247,3.1204,3.1204,3.1204,0,3.1398,3.1383,3.138,3.1373,3.1349,3.1348,3.1338,3.1321,3.1314,3.1302,3.1297,3.1284,3.1276,3.1266,3.1246,3.1238,3.1239,3.1223,3.123,3.1231,3.1232,3.1232,3.1264,3.1227,3.1227,3.1227,3.1227,0,3.142,3.1419,3.1392,3.1391,3.1389,3.1368,3.1367,3.1355,3.134,3.1335,3.1314,3.1309,3.1283,3.1275,3.1259,3.1254,3.1251,3.1242,3.1238,3.1244,3.1246,3.124,3.1239,3.1228,3.1228,3.1228,3.1228,0,3.1451,3.1433,3.1428,3.1407,3.1401,3.1401,3.1382,3.1379,3.1365,3.1358,3.1356,3.1333,3.1322,3.1301,3.1284,3.1274,3.1273,3.1265,3.1279,3.1276,3.1285,3.1284,3.1314,3.1317,3.1279,3.1279,3.1279,0,3.1466,3.1465,3.1444,3.144,3.1431,3.1424,3.1417,3.1396,3.139,3.1372,3.1371,3.1359,3.1349,3.1333,3.1314,3.1301,3.1294,3.1305,3.1291,3.1298,3.1294,3.1295,3.1295,3.1308,3.1308,3.1309,3.1309,0,3.1495,3.1486,3.1478,3.1467,3.146,3.145,3.1438,3.1436,3.1412,3.1405,3.1395,3.1388,3.1371,3.136,3.1345,3.1333,3.1317,3.1314,3.1315,3.1321,3.133,3.1326,3.1288,3.1313,3.1313,3.1312,3.1312,3.1312,3.1519,3.1517,3.1503,3.1494,3.1484,3.1474,3.147,3.1456,3.1448,3.1434,3.1421,3.1413,3.1396,3.1374,3.1364,3.1356,3.1348,3.1349,3.135,3.1351,3.1354,3.1331,3.1353,3.1353,3.1353,3.1352,3.1352,0,3.1547,3.1536,3.1529,3.1515,3.1508,3.1495,3.1482,3.1477,3.147,3.1456,3.1447,3.1436,3.1425,3.1405,3.1393,3.139,3.1383,3.1387,3.1388,3.1385,3.1361,3.1362,3.1394,3.1394,3.1394,3.1394,3.1394,3.1394,3.1561,3.1558,3.1548,3.154,3.1529,3.1521,3.1515,3.1506,3.1495,3.1484,3.1475,3.1463,3.1447,3.1433,3.1422,3.1417,3.1413,3.1421,3.1413,3.1391,3.1387,3.1383,3.1384,3.142,3.142,3.1438,3.1438,3.1438]}]]